Погода в Тойси

Россия / Чувашская Республика     55°04′34″N   47°46′08″E
темп.,
°C
ветер,
м/с
пор.,
м/с
влажн.,
%
обл.,
%
осадки,
мм/ч
давл.,
гПа
погр.,
м
12 мая, ср
ср1200:00+16юз116599 0.0 102615
03:00+15св227118 0.0 102611
06:00+16в256942 0.0 1026151
09:00+22вюв47472 0.0 1026718
12:00+23юв694035 0.0 10261963
15:00+24юв610388 0.0 10252642
18:00+21ююв2453100 0.0 1025120
21:00+18юв226080 0.0 102529
13 мая, чт
чт1300:00+17вюв366192 0.0 1025114
03:00+16вюв346846 0.0 102571
06:00+16вюв487069 0.0 1025251
09:00+20вюв69463 0.0 1024635
12:00+23юв81143100 0.0 10241173
15:00+20вюв6115958 0.8 1023760
18:00+20вюв5135881 0.0 1021536
21:00+17юв4107098 0.1 1021193
14 мая, пт
пт1400:00+15юв4127147 0.0 1021244
03:00+14юв377426 0.0 1021122
06:00+16ююв357010 0.0 1022144
09:00+22ю5754100 0.0 1021551
12:00+25ю6848100 0.0 10211264
15:00+26ю6842100 0.0 10211514
18:00+23ю4105265 0.0 1020342
21:00+19ююв412655 0.0 1020235
15 мая, сб
сб1500:00+17ю5136457 0.0 1019249
03:00+16ююв4106398 0.0 1020170
06:00+17ююв4116014 0.0 1020266
09:00+24ю6940100 0.0 1019503
12:00+27ю793073 0.0 10191212
15:00+28ююз7929100 0.0 10181618
18:00+24ю5104320 0.0 1017294
21:00+20ю514495 0.0 1017243
16 мая, вс
вс1600:00+18ю5144755 0.0 1017217
03:00+17ю4135260 0.0 1017209
06:00+19ю5155632 0.0 1016335
09:00+25ююз7124081 0.0 1016691
12:00+27ююз81233100 0.0 10161876
15:00+28ююз7934100 0.0 10151766
18:00+25ююз594897 0.0 1015308
21:00+20юз33665 0.0 101628